SCP
0 0 0 0 0 0 0 0 0 0 0 0 0 0 0 0 0 0 0 0 0 0 0 0 0 0 0 0 0 0 0 0 0 0 0 0 0 0
0 0 0 0 0 0 0 0 0 0 0 0 0 0 0 0 0 0 0 0 0 0 0 0 0 0 0 0 0 0 0 0 0 0 0 0 0 0
0 0 0 0 0 0 0 0 0 0 0 0 0 0 0 0 0 0 0 0 0 0 0 0 0 0 0 0 0 0 0 0 0 0 0 0 0 0
0 0 0 0 0 0 0 0 0 0 0 0 0 0 0 0 0 0 0 0 0 0 0 0 0 0 0 0 0 0 0 0 0 0 0 0 0 0
0 0 0 0 0 0 0 0 0 0 0 0 0 0 0 0 0 0 0 0 0 0 0 0 0 0 0 0 0 0 0 0 0 0 0 0 0 0
0 0 0 0 0 0 0 0 0 0 0 0 0 0 0 0 0 0 0 0 0 0 0 0 0 0 0 0 0 0 0 0 0 0 0 0 0 0
0 0 0 0 0 0 0 0 0 0 0 0 0 0 0 0 0 0 0 0 0 0 0 0 0 0 0 0 0 0 0 0 0 0 0 0 0 0
0 0 0 0 0 0 0 0 0 0 0 0 0 0 0 0 0 0 0 0 0 0 0 0 0 0 0 0 0 0 0 0 0 0 0 0 0 0
0 0 0 0 0 0 0 0 0 0 0 0 0 0 0 0 0 0 0 0 0 0 0 0 0 0 0 0 0 0 0 0 0 0 0 0 0 0
0 0 0 0 0 0 0 0 0 0 0 0 0 0 0 0 0 0 0 0 0 0 0 0 0 0 0 0 0 0 0 0 0 0 0 0 0 0
0 0 0 0 0 0 0 0 0 0 0 0 0 0 0 0 0 0 0 0 0 0 0 0 0 0 0 0 0 0 0 0 0 0 0 0 0 0
0 0 0 0 0 0 0 0 0 0 0 0 0 0 0 0 0 0 0 0 0 0 0 0 0 0 0 0 0 0 0 0 0 0 0 0 0 0
0 0 0 0 0 0 0 0 0 0 0 0 0 0 0 0 0 0 0 0 0 0 0 0 0 0 0 0 0 0 0 0 0 0 0 0 0 0
0 0 0 0 0 0 0 0 0 0 0 0 0 0 0 0 0 0 0 0 0 0 0 0 0 0 0 0 0 0 0 0 0 0 0 0 0 0
0 0 0 0 0 0 0 0 0 0 0 0 0 0 0 0 0 0 0 0 0 0 0 0 0 0 0 0 0 0 0 0 0 0 0 0 0 0
0 0 0 0 0 0 0 0 0 0 0 0 0 0 0 0 0 0 0 0 0 0 0 0 0 0 0 0 0 0 0 0 0 0 0 0 0 0
0 0 0 0 0 0 0 0 0 0 0 0 0 0 0 0 0 0 0 0 0 0 0 0 0 0 0 0 0 0 0 0 0 0 0 0 0 0
0 0 0 0 0 0 0 0 0 0 0 0 0 0 0 0 0 0 0 0 0 0 0 0 0 0 0 0 0 0 0 0 0 0 0 0 0 0
0 0 0 0 0 0 0 0 0 0 0 0 0 0 0 0 0 0 0 0 0 0 0 0 0 0 0 0 0 0 0 0 0 0 0 0 0 0
0 0 0 0 0 0 0 0 0 0 0 0 0 0 0 0 0 0 0 0 0 0 0 0 0 0 0 0 0 0 0 0 0 0 0 0 0 0
0 0 0 0 0 0 0 0 0 0 0 0 0 0 0 0 0 0 0 0 0 0 0 0 0 0 0 0 0 0 0 0 0 0 0 0 0 0
0 0 0 0 0 0 0 0 0 0 0 0 0 0 0 0 0 0 0 0 0 0 0 0 0 0 0 0 0 0 0 0 0 0 0 0 0 0
0 0 0 0 0 0 0 0 0 0 0 0 0 0 0 0 0 0 0 0 0 0 0 0 0 0 0 0 0 0 0 0 0 0 0 0 0 0
Wind_Speed
2 3 2 1 2 2 3 4 5 3 1 1 0 1 0 1 2 3 3 8 9 10 11 11 12 13 14 14 14 15 15 15 15 15 15 16 16 16
2 3 2 1 2 2 3 2 3 5 3 1 1 1 1 2 4 3 3 8 8 9 10 11 11 12 13 13 13 13 14 14 14 14 14 14 14 15
2 3 2 2 2 2 2 3 3 3 4 1 1 1 2 2 2 2 2 3 4 8 9 10 10 11 12 12 12 12 12 12 13 13 13 13 13 13
3 3 3 3 3 2 3 3 3 3 5 4 1 1 1 1 2 2 2 3 3 7 8 9 9 10 10 11 11 11 11 12 12 12 12 12 12 13
4 4 3 4 3 2 3 3 3 3 3 4 2 1 1 1 2 2 2 2 2 4 6 6 7 8 9 9 9 10 10 10 10 11 11 12 12 12
3 4 4 5 5 4 3 4 4 4 4 4 3 1 1 1 2 2 1 1 1 2 3 4 5 6 7 8 8 8 9 9 9 10 10 10 11 11
3 3 3 5 6 5 5 4 5 4 4 3 3 2 1 1 1 1 2 1 1 1 1 1 2 2 3 4 6 7 7 8 8 8 9 9 10 10
4 2 3 4 6 7 8 8 8 6 5 4 3 3 2 2 2 2 2 1 0 1 2 1 1 1 1 1 3 5 5 6 6 7 7 8 8 9
4 4 3 3 4 4 5 6 5 6 8 6 5 4 4 4 4 3 2 2 2 1 2 0 1 1 1 1 3 3 4 4 5 5 6 6 7 7
4 4 4 3 4 5 5 4 3 2 4 4 4 4 4 4 4 4 4 3 1 1 2 1 0 0 1 1 3 2 3 3 4 5 5 6 6 6
3 3 4 4 6 8 6 5 3 1 2 4 5 4 4 6 6 4 3 3 1 1 0 2 1 0 1 1 2 3 3 3 4 5 5 6 6 5
2 2 4 5 7 8 6 6 5 3 3 3 2 2 2 3 5 4 4 3 2 1 1 2 1 1 0 1 1 2 2 3 3 4 4 4 4 2
3 2 2 5 7 8 7 5 6 5 3 3 2 1 1 1 1 1 2 3 3 2 2 3 2 1 1 1 1 1 1 1 1 2 3 4 4 2
4 3 3 6 6 7 5 6 8 6 3 2 2 1 1 1 1 1 2 2 2 3 3 4 3 3 2 1 1 1 1 1 0 1 1 3 3 3
3 5 5 6 5 4 6 7 6 4 3 3 2 2 2 2 1 1 2 2 3 2 1 2 3 3 3 3 2 1 1 1 1 1 1 1 1 1
3 5 6 5 4 4 4 3 3 3 4 3 2 2 1 1 1 1 1 1 2 2 2 1 2 3 2 2 2 1 1 1 1 1 1 1 2 1
5 3 2 2 2 1 1 1 2 2 2 2 2 2 2 2 1 1 1 1 1 1 1 2 1 2 2 2 1 1 1 1 2 1 0 1 2 2
6 4 3 3 3 3 3 2 2 2 3 3 2 3 3 3 2 1 2 2 2 2 1 1 1 1 2 2 1 2 1 2 2 1 1 1 3 3
4 4 4 4 4 4 3 3 2 2 2 3 3 3 3 2 2 2 2 2 2 2 1 1 1 2 1 2 3 1 1 1 1 1 1 2 3 3
3 4 4 4 4 4 3 3 2 2 2 2 2 3 3 2 2 2 3 3 3 2 1 1 2 3 4 3 2 2 1 1 1 2 2 2 2 3
4 4 4 4 4 4 3 3 3 3 3 3 3 3 3 3 2 3 2 3 3 2 2 2 3 2 1 2 0 2 2 2 1 2 2 1 2 2
4 4 4 4 4 4 4 3 3 3 3 3 3 3 3 3 3 3 3 3 2 2 2 2 1 1 1 2 2 2 2 2 2 2 2 1 2 2
5 4 4 4 4 4 4 4 4 3 3 3 3 3 3 2 2 2 2 2 2 2 1 1 0 1 1 2 2 2 2 2 1 2 3 4 4 5
Wind_Direction
133 128 120 118 118 129 137 144 143 144 180 241 240 318 69 94 80 74 74 75 73 69 65 61 59 57 57 56 56 55 54 53 52 51 51 50 49 48
130 121 110 112 106 113 129 129 133 140 153 213 206 204 153 114 103 88 82 84 78 76 71 67 64 61 60 59 58 58 55 52 51 50 50 48 47 47
133 133 131 125 112 109 109 112 115 122 128 125 73 99 96 104 87 77 78 70 74 81 79 75 70 67 65 63 61 60 56 53 50 49 49 48 47 45
159 141 143 129 114 114 116 118 121 125 131 133 113 87 97 133 116 107 93 91 83 82 83 81 76 73 69 67 65 61 58 54 50 48 47 47 46 44
164 158 155 136 127 122 122 122 120 113 111 129 134 99 73 101 90 75 75 47 85 91 86 79 78 76 74 73 69 64 60 57 53 49 47 46 44 43
158 157 156 153 155 148 136 133 126 116 114 120 121 109 90 91 102 101 70 27 54 76 77 83 77 72 71 74 71 66 62 60 56 52 49 46 43 42
140 148 162 160 161 157 150 152 140 131 128 127 130 117 120 129 164 167 139 98 27 51 76 55 53 38 35 53 66 68 66 62 56 51 49 47 44 41
145 146 149 153 147 145 145 151 154 150 153 148 155 164 193 187 165 158 148 128 293 317 111 46 66 38 357 18 57 68 66 63 56 51 50 46 42 39
159 160 153 144 145 140 129 124 133 149 156 158 164 187 189 195 171 161 164 158 189 211 129 102 18 13 327 15 55 60 55 49 47 48 49 46 38 33
160 163 156 156 158 151 138 126 123 136 162 161 172 190 190 186 177 171 163 140 90 28 122 142 280 323 354 348 11 36 37 34 34 40 48 47 40 33
147 149 153 158 164 152 141 140 136 129 120 139 148 149 148 151 145 124 127 127 140 302 108 140 169 115 2 333 344 14 24 32 38 43 46 45 41 31
133 148 162 165 164 157 151 151 158 179 143 112 96 78 94 129 145 154 161 153 154 214 228 145 152 126 26 311 329 343 354 8 26 31 36 36 38 35
160 169 178 168 163 162 160 164 172 161 142 136 122 93 69 75 96 131 155 158 160 195 198 151 149 145 149 266 316 316 331 326 345 355 9 18 26 46
173 178 178 171 166 161 161 165 158 144 134 132 132 149 161 187 184 133 127 129 143 172 178 154 152 165 155 159 267 299 309 307 314 322 323 356 1 5
166 164 161 160 157 157 160 157 148 142 147 155 178 207 212 195 148 105 73 78 61 52 88 143 149 157 156 175 202 241 273 290 280 276 301 307 296 314
137 140 137 133 127 130 135 146 153 162 165 176 186 196 161 135 146 148 143 126 82 10 12 43 143 151 158 175 175 221 221 243 274 258 254 287 301 295
137 117 113 117 121 116 110 131 140 146 160 170 175 179 172 163 178 161 147 132 148 190 329 356 41 97 139 156 168 229 241 258 254 244 213 294 290 286
140 151 165 171 176 181 181 182 179 183 185 181 181 187 186 184 181 163 153 160 177 200 209 211 122 55 31 352 222 220 249 255 269 268 191 247 291 295
153 174 182 187 190 189 190 190 200 202 184 178 186 189 186 183 172 172 167 169 189 205 210 183 163 153 182 262 298 280 207 241 265 278 252 231 258 275
182 183 190 190 189 190 189 190 189 178 175 181 185 187 180 173 174 180 183 186 192 195 197 195 196 198 204 216 234 289 284 208 224 255 267 269 274 289
190 189 189 186 185 185 186 184 180 182 184 183 185 185 179 171 180 186 181 178 181 188 202 227 239 219 157 98 93 293 301 283 231 228 243 268 299 315
188 190 189 185 182 181 181 178 176 180 182 184 185 182 179 177 182 182 181 181 191 199 212 229 196 128 135 173 217 252 280 306 317 325 295 223 202 243
191 189 187 185 183 180 179 179 180 186 187 184 180 176 169 172 178 176 179 179 175 179 188 206 181 142 174 186 211 244 266 287 310 321 306 312 300 297